Find PICO-01A003

NORAD ID: 58326 Int'l Des: 2023-174 Owner: APOGEO Country: I operational
LEOCIRCULARRETROGRADESSO

实时位置

正在加载3D地球...

关于 PICO-01A003

正在加载描述...

即将过境

Passes for default location (London). Set your location on the main map for personalized predictions.

高度历史

Loading altitude history...

两行轨道根数

1 58326U 23174BY 26132.64871576 .00013292 00000-0 28694-3 0 9998
2 58326 97.3794 217.4028 0004375 289.0339 71.0435 15.44656904139920
Epoch: May 12, 2026 • Age: 3 hours

当前状态

高度 434.6 km
速度 7.65 km/s
星下点 14.88°N, 63.88°E
发射日期 Nov 11, 2023
运行时间 2.4 years
类型 other

技术详情

分类 Payload
质量 0.50 kg
干质量 0.50 kg
总质量 0.50 kg
长度 0.03 m
直径 0.10 m
跨度 0.10 m
形状 Box
制造商 APOGEO
平台类型 Cubesat 0.3U
阶段状态 In Orbit
所有者/国家 APOGEO/I

Most Searched